Radiation Dose at Monitoring Post of Fukushima Daini Nuclear Power Station
Date,Time,MP-1(microSv/h),MP-2(microSv/h),MP-3(microSv/h),MP-4(microSv/h),MP-5(microSv/h),MP-6(microSv/h),MP-7(microSv/h),Wind Direction,Wind Velocity(m/s),Rain
2018/08/24,00:00,0.328,0.199,0.334,0.317,0.290,0.162,0.098,south,16.2,No
2018/08/24,00:10,0.326,0.202,0.334,0.316,0.287,0.162,0.099,south,14.6,No
2018/08/24,00:20,0.323,0.202,0.332,0.320,0.290,0.162,0.098,south,15.1,No
2018/08/24,00:30,0.324,0.201,0.330,0.321,0.294,0.162,0.097,south,17.1,No
2018/08/24,00:40,0.328,0.200,0.330,0.320,0.290,0.162,0.098,south,15.4,No
2018/08/24,00:50,0.326,0.201,0.333,0.317,0.288,0.162,0.098,south,15.7,No
2018/08/24,01:00,0.324,0.202,0.334,0.316,0.287,0.163,0.098,south,16.5,No
2018/08/24,01:10,0.324,0.202,0.332,0.321,0.290,0.162,0.098,south,17.7,No
2018/08/24,01:20,0.326,0.201,0.330,0.322,0.292,0.160,0.098,south,16.7,Yes
2018/08/24,01:30,0.328,0.200,0.329,0.318,0.290,0.161,0.098,south,17.7,No
2018/08/24,01:40,0.327,0.202,0.332,0.317,0.288,0.162,0.097,south,15.9,No
2018/08/24,01:50,0.323,0.203,0.335,0.316,0.287,0.162,0.097,south,16.8,No
2018/08/24,02:00,0.325,0.202,0.331,0.321,0.292,0.162,0.098,south,18.3,No
2018/08/24,02:10,0.329,0.201,0.330,0.320,0.292,0.161,0.098,south,17.1,Yes
2018/08/24,02:20,0.328,0.201,0.329,0.319,0.288,0.160,0.098,south,18.9,No
2018/08/24,02:30,0.325,0.202,0.333,0.316,0.288,0.162,0.098,south,18.5,No
2018/08/24,02:40,0.323,0.202,0.334,0.318,0.290,0.162,0.097,south,16.4,No
2018/08/24,02:50,0.327,0.200,0.333,0.323,0.290,0.162,0.099,south,17.6,No
2018/08/24,03:00,0.328,0.200,0.330,0.321,0.289,0.162,0.098,south,19.0,No
2018/08/24,03:10,0.325,0.202,0.329,0.319,0.287,0.162,0.097,south,19.1,No
2018/08/24,03:20,0.323,0.203,0.334,0.316,0.289,0.163,0.097,south,18.1,No
2018/08/24,03:30,0.324,0.201,0.333,0.319,0.292,0.162,0.098,south,17.6,No
2018/08/24,03:40,0.329,0.200,0.330,0.320,0.290,0.161,0.098,south,18.3,Yes
2018/08/24,03:50,0.325,0.203,0.329,0.319,0.289,0.162,0.098,south,17.8,No
2018/08/24,04:00,0.324,0.203,0.334,0.318,0.288,0.161,0.098,south,18.9,No
2018/08/24,04:10,0.323,0.202,0.334,0.319,0.291,0.162,0.099,south,17.6,No
2018/08/24,04:20,0.328,0.201,0.333,0.322,0.292,0.161,0.098,south,17.3,No
2018/08/24,04:30,0.327,0.202,0.330,0.319,0.288,0.162,0.098,south,17.0,No
2018/08/24,04:40,0.325,0.204,0.332,0.318,0.287,0.162,0.098,south,19.5,No
2018/08/24,04:50,0.323,0.202,0.332,0.317,0.291,0.162,0.099,south,18.3,Yes
2018/08/24,05:00,0.322,0.199,0.328,0.317,0.288,0.159,0.098,south,16.6,Yes
2018/08/24,05:10,0.322,0.199,0.324,0.314,0.283,0.159,0.097,south,15.9,Yes
2018/08/24,05:20,0.317,0.199,0.326,0.307,0.282,0.158,0.098,south,18.5,Yes
2018/08/24,05:30,0.317,0.198,0.326,0.308,0.286,0.159,0.098,south,17.3,Yes
2018/08/24,05:40,0.320,0.197,0.321,0.312,0.283,0.158,0.097,south,15.0,Yes
2018/08/24,05:50,0.319,0.198,0.321,0.310,0.283,0.158,0.097,south,18.1,Yes
2018/08/24,06:00,0.315,0.197,0.325,0.308,0.284,0.160,0.097,south,18.7,Yes
2018/08/24,06:10,0.320,0.196,0.323,0.310,0.287,0.158,0.097,south,17.0,Yes
2018/08/24,06:20,0.319,0.196,0.319,0.311,0.283,0.158,0.097,south,16.6,Yes
2018/08/24,06:30,0.317,0.198,0.322,0.309,0.282,0.159,0.097,south,15.1,Yes
2018/08/24,06:40,0.317,0.197,0.324,0.306,0.284,0.159,0.098,south,15.1,Yes
2018/08/24,06:50,0.320,0.195,0.320,0.309,0.284,0.158,0.096,south,14.8,Yes
2018/08/24,07:00,0.319,0.198,0.318,0.311,0.283,0.158,0.097,south,14.6,Yes
2018/08/24,07:10,0.315,0.198,0.324,0.307,0.283,0.159,0.097,south,15.5,No
2018/08/24,07:20,0.318,0.196,0.322,0.307,0.286,0.159,0.097,south,14.8,No
2018/08/24,07:30,0.320,0.195,0.319,0.310,0.286,0.158,0.097,south,13.4,No
2018/08/24,07:40,0.318,0.197,0.320,0.310,0.283,0.159,0.097,south,11.8,Yes
2018/08/24,07:50,0.315,0.197,0.322,0.307,0.282,0.159,0.097,south,11.7,No
2018/08/24,08:00,0.319,0.196,0.321,0.307,0.285,0.160,0.096,south,13.1,No
2018/08/24,08:10,0.321,0.195,0.318,0.310,0.285,0.159,0.097,south,13.9,Yes
2018/08/24,08:20,0.319,0.197,0.318,0.310,0.283,0.158,0.097,south,13.9,Yes
2018/08/24,08:30,0.315,0.198,0.323,0.308,0.282,0.158,0.097,south-southwest,12.9,Yes
2018/08/24,08:40,0.319,0.198,0.323,0.306,0.285,0.160,0.097,south,8.8,Yes
2018/08/24,08:50,0.321,0.196,0.319,0.310,0.287,0.159,0.096,south-southwest,10.6,Yes
2018/08/24,09:00,0.320,0.197,0.319,0.312,0.284,0.159,0.097,south-southwest,10.4,Yes
2018/08/24,09:10,0.317,0.198,0.322,0.310,0.283,0.158,0.097,south-southwest,10.1,Yes
2018/08/24,09:20,0.318,0.198,0.323,0.307,0.282,0.160,0.096,south,8.7,Yes
2018/08/24,09:30,0.321,0.196,0.320,0.309,0.286,0.160,0.096,south,9.5,Yes
2018/08/24,09:40,0.319,0.197,0.319,0.312,0.285,0.160,0.097,south-southwest,10.6,Yes
2018/08/24,09:50,0.317,0.198,0.323,0.308,0.284,0.159,0.097,south-southwest,11.8,Yes
2018/08/24,10:00,0.315,0.199,0.322,0.308,0.283,0.158,0.096,south,10.9,Yes
2018/08/24,10:10,0.320,0.197,0.320,0.308,0.284,0.160,0.096,south-southwest,10.3,No
2018/08/24,10:20,0.320,0.196,0.317,0.312,0.286,0.160,0.097,south,12.0,No
2018/08/24,10:30,0.319,0.195,0.318,0.309,0.284,0.159,0.097,south,13.9,No
2018/08/24,10:40,0.317,0.195,0.323,0.307,0.283,0.158,0.097,south,17.9,No
2018/08/24,10:50,0.315,0.194,0.321,0.307,0.281,0.158,0.096,south,14.0,No
2018/08/24,11:00,0.317,0.197,0.322,0.305,0.281,0.158,0.097,south,14.9,No
2018/08/24,11:10,0.321,0.198,0.319,0.310,0.282,0.159,0.097,south,14.9,No
2018/08/24,11:20,0.320,0.198,0.318,0.311,0.287,0.160,0.098,south-southwest,12.8,No
2018/08/24,11:30,0.318,0.196,0.322,0.310,0.287,0.159,0.096,south-southwest,10.1,No
2018/08/24,11:40,0.316,0.196,0.324,0.307,0.284,0.158,0.096,south-southwest,10.1,No
2018/08/24,11:50,0.319,0.195,0.321,0.306,0.283,0.158,0.097,south-southwest,7.7,No
2018/08/24,12:00,0.321,0.195,0.320,0.308,0.283,0.159,0.097,south,9.8,No
2018/08/24,12:10,0.321,0.195,0.318,0.312,0.283,0.159,0.097,south,11.7,No
2018/08/24,12:20,0.319,0.195,0.319,0.310,0.281,0.159,0.097,south,12.0,No
2018/08/24,12:30,0.316,0.196,0.319,0.310,0.284,0.159,0.096,south-southwest,10.0,No
2018/08/24,12:40,0.316,0.195,0.319,0.307,0.283,0.159,0.096,south,11.2,Yes
2018/08/24,12:50,0.316,0.195,0.320,0.307,0.283,0.158,0.096,south,11.8,No
2018/08/24,13:00,0.320,0.197,0.325,0.306,0.284,0.159,0.097,south,14.9,No
2018/08/24,13:10,0.324,0.196,0.325,0.307,0.286,0.160,0.097,south-southwest,14.5,No
2018/08/24,13:20,0.320,0.196,0.321,0.308,0.290,0.160,0.096,south,12.6,No
2018/08/24,13:30,0.319,0.197,0.320,0.311,0.289,0.159,0.096,south-southwest,10.4,No
2018/08/24,13:40,0.318,0.195,0.321,0.312,0.287,0.158,0.096,south,10.9,No
2018/08/24,13:50,0.317,0.197,0.319,0.311,0.285,0.159,0.097,south-southwest,11.2,No
2018/08/24,14:00,0.318,0.197,0.319,0.311,0.285,0.158,0.096,south,9.8,No
2018/08/24,14:10,0.318,0.199,0.320,0.308,0.285,0.158,0.096,south,10.1,No
2018/08/24,14:20,0.317,0.198,0.319,0.309,0.283,0.159,0.097,south,11.8,Yes
2018/08/24,14:30,0.316,0.197,0.322,0.307,0.284,0.159,0.096,south,12.9,No
2018/08/24,14:40,0.321,0.198,0.326,0.308,0.285,0.160,0.098,south-southwest,12.9,No
2018/08/24,14:50,0.323,0.198,0.324,0.312,0.284,0.161,0.098,south-southwest,12.9,No
2018/08/24,15:00,0.320,0.197,0.323,0.311,0.283,0.160,0.097,south-southwest,13.4,No
2018/08/24,15:10,0.320,0.198,0.321,0.311,0.284,0.160,0.097,south-southwest,13.7,No
2018/08/24,15:20,0.319,0.198,0.319,0.309,0.282,0.159,0.096,south-southwest,15.4,No
2018/08/24,15:30,0.317,0.198,0.320,0.309,0.285,0.159,0.097,south-southwest,14.9,No
2018/08/24,15:40,0.318,0.198,0.319,0.308,0.286,0.160,0.097,south,14.9,No
2018/08/24,15:50,0.318,0.197,0.320,0.309,0.285,0.159,0.097,south-southwest,12.2,No
2018/08/24,16:00,0.318,0.198,0.320,0.308,0.284,0.160,0.097,south-southwest,12.3,No
2018/08/24,16:10,0.317,0.196,0.322,0.308,0.285,0.159,0.096,south,11.2,No
2018/08/24,16:20,0.319,0.198,0.327,0.311,0.284,0.159,0.098,south-southwest,13.3,No
2018/08/24,16:30,0.323,0.198,0.325,0.315,0.289,0.160,0.098,south,13.3,No
2018/08/24,16:40,0.323,0.196,0.323,0.313,0.290,0.159,0.097,south-southwest,14.6,No
2018/08/24,16:50,0.321,0.196,0.322,0.312,0.287,0.160,0.097,south,13.4,No
2018/08/24,17:00,0.320,0.200,0.321,0.310,0.286,0.160,0.097,south,12.3,No
2018/08/24,17:10,0.318,0.200,0.319,0.308,0.285,0.160,0.098,south,12.2,No
2018/08/24,17:20,0.318,0.198,0.321,0.309,0.285,0.160,0.098,south-southwest,12.2,No
2018/08/24,17:30,0.323,0.197,0.326,0.312,0.284,0.160,0.097,south-southwest,10.9,No
2018/08/24,17:40,0.321,0.196,0.325,0.313,0.286,0.159,0.096,south,9.5,No
2018/08/24,17:50,0.321,0.198,0.322,0.312,0.289,0.160,0.097,south,9.5,No
2018/08/24,18:00,0.318,0.200,0.320,0.311,0.287,0.160,0.098,south,11.2,No
2018/08/24,18:10,0.324,0.199,0.321,0.310,0.286,0.160,0.097,south,11.8,No
2018/08/24,18:20,0.323,0.197,0.325,0.314,0.284,0.159,0.097,south-southwest,12.9,No
2018/08/24,18:30,0.320,0.198,0.325,0.313,0.289,0.160,0.098,south-southwest,12.2,No
2018/08/24,18:40,0.320,0.200,0.322,0.310,0.288,0.161,0.097,south-southwest,11.2,No
2018/08/24,18:50,0.325,0.197,0.319,0.308,0.286,0.161,0.098,south-southwest,12.0,No
2018/08/24,19:00,0.322,0.197,0.322,0.312,0.284,0.160,0.097,south-southwest,11.7,No
2018/08/24,19:10,0.320,0.200,0.326,0.315,0.284,0.160,0.098,south-southwest,11.2,No
2018/08/24,19:20,0.320,0.200,0.324,0.312,0.289,0.161,0.097,south-southwest,12.8,No
2018/08/24,19:30,0.324,0.197,0.322,0.311,0.288,0.160,0.096,south-southwest,12.0,No
2018/08/24,19:40,0.322,0.197,0.321,0.310,0.286,0.159,0.096,south-southwest,11.2,No
2018/08/24,19:50,0.319,0.200,0.322,0.310,0.284,0.159,0.098,south-southwest,10.9,No
2018/08/24,20:00,0.319,0.198,0.326,0.315,0.285,0.159,0.098,south-southwest,10.0,No
2018/08/24,20:10,0.324,0.198,0.323,0.312,0.289,0.161,0.098,south-southwest,10.0,No
2018/08/24,20:20,0.322,0.197,0.321,0.311,0.287,0.160,0.097,south-southwest,10.4,No
2018/08/24,20:30,0.320,0.200,0.321,0.310,0.284,0.159,0.098,south,9.5,No
2018/08/24,20:40,0.318,0.199,0.325,0.312,0.284,0.159,0.098,south,10.0,No
2018/08/24,20:50,0.323,0.198,0.327,0.314,0.289,0.160,0.096,south-southwest,10.9,No
2018/08/24,21:00,0.322,0.198,0.324,0.313,0.288,0.161,0.096,south-southwest,10.3,No
2018/08/24,21:10,0.321,0.199,0.320,0.311,0.286,0.160,0.097,south-southwest,9.8,No
2018/08/24,21:20,0.319,0.198,0.322,0.308,0.285,0.160,0.098,south,10.4,No
2018/08/24,21:30,0.321,0.197,0.327,0.312,0.288,0.160,0.097,south,8.2,No
2018/08/24,21:40,0.322,0.197,0.324,0.316,0.287,0.161,0.097,south,7.7,No
2018/08/24,21:50,0.322,0.199,0.323,0.312,0.287,0.161,0.098,south,7.3,No
2018/08/24,22:00,0.318,0.199,0.320,0.309,0.284,0.159,0.098,south,6.7,No
2018/08/24,22:10,0.319,0.198,0.323,0.308,0.286,0.160,0.098,south,7.0,No
2018/08/24,22:20,0.325,0.198,0.326,0.315,0.289,0.160,0.097,south,6.9,No
2018/08/24,22:30,0.323,0.199,0.323,0.313,0.287,0.161,0.097,south-southwest,7.6,No
2018/08/24,22:40,0.320,0.199,0.321,0.311,0.285,0.160,0.098,south-southwest,6.8,No
2018/08/24,22:50,0.319,0.198,0.320,0.310,0.283,0.160,0.097,southwest,6.6,No
2018/08/24,23:00,0.324,0.197,0.325,0.308,0.285,0.160,0.098,south-southwest,8.1,No
2018/08/24,23:10,0.323,0.198,0.324,0.314,0.289,0.161,0.096,southwest,8.1,No
2018/08/24,23:20,0.319,0.200,0.323,0.313,0.287,0.159,0.097,southwest,9.6,No
2018/08/24,23:30,0.317,0.198,0.322,0.312,0.285,0.160,0.098,southwest,9.5,No
2018/08/24,23:40,0.321,0.198,0.320,0.311,0.283,0.159,0.098,southwest,7.6,No
2018/08/24,23:50,0.324,0.198,0.325,0.309,0.286,0.160,0.096,south-southwest,7.4,No
